Accueil
METAR-TAF:

METAR-TAF

Aéroports :

Flessingue, Pays-Bas

latitude: 51-27N, longitude: 3-36E, altitude: 10 m

Observation

Le bulletin a été fait il y a 13 minutes, à 21:55 UTC
Vent 6 kt de nord/nord-est, variant entre nord et nord-est
Température 5°C
Humidité 65%
Pression 1024 hPa
Visibilité 10 km ou plus

METAR: EHFS 222155Z AUTO 03006KT 350V050 9999 NSC 05/M01 Q1024

Heure: 00:08 (22:08 UTC)


TAF: absent

Observations et prévisions météorologiques de plus de 4000 aéroports (messages METAR et TAF).

Les stations disponibles sont représentées par des disques jaunes et rouges sur la carte.

Passer la souris dessus pour voir le nom de la station.

Cliquer dessus pour voir les observations et prévisions météorologiques.

Pour changer de carte: cliquez sur les boutons verts avec une croix noire pour zoomer, sur le bouton vert avec un tiret pour effectuer un zoom arrière, ou sur les flèches vertes pour les cartes adjacentes.


METAR-TAF: